Location: Newark
(43.0000°N, 1.6781°W)
Time: 19:05:36
(UTC+00:00)

Altair - All Passes

Search period start: 19 April 2021 00:00
Search period end: 29 April 2021 00:00
Orbit: 1501 x 1683 km, 47.2° (Epoch: 19 April)

Date Brightness Start Highest point End Pass type
(mag) Time Alt. Az. Time Alt. Az. Time Alt. Az.
19 Apr - 03:23:59 10° SSE 03:29:19 16° SE 03:34:33 10° E visible
19 Apr - 05:22:58 10° SW 05:32:30 54° SE 05:41:43 10° ENE daylight
19 Apr - 07:27:15 10° WSW 07:37:06 79° NNW 07:46:35 10° ENE daylight
19 Apr - 09:32:57 10° WNW 09:42:34 71° N 09:51:50 10° E daylight
19 Apr - 11:38:08 10° WNW 11:47:31 73° SSW 11:56:38 10° SE daylight
19 Apr - 13:43:54 10° WNW 13:51:00 25° SW 13:58:03 10° S daylight
20 Apr - 02:59:46 10° SSE 03:04:17 14° ESE 03:08:44 10° E visible
20 Apr - 04:57:55 10° SSW 05:07:22 50° SE 05:16:31 10° ENE daylight
20 Apr - 07:01:59 10° WSW 07:11:53 82° NNW 07:21:24 10° ENE daylight
20 Apr - 09:07:40 10° WNW 09:17:20 70° N 09:26:37 10° E daylight
20 Apr - 11:12:55 10° WNW 11:22:22 77° SSW 11:31:32 10° SE daylight
20 Apr - 13:18:31 10° WNW 13:25:58 28° SW 13:33:20 10° S daylight
21 Apr - 02:35:49 10° SE 02:39:15 12° ESE 02:42:38 10° E visible
21 Apr - 04:32:53 10° SSW 04:42:15 47° SE 04:51:18 10° ENE visible
21 Apr - 06:36:43 10° WSW 06:46:40 84° NNW 06:56:13 10° ENE daylight
21 Apr - 08:42:24 10° W 08:52:05 69° N 09:01:24 10° E daylight
21 Apr - 10:47:41 10° WNW 10:57:12 81° SSW 11:06:25 10° ESE daylight
21 Apr - 12:53:10 10° WNW 13:00:56 31° SW 13:08:34 10° S daylight
22 Apr - 02:12:40 10° SE 02:14:13 10° ESE 02:15:47 10° ESE visible
22 Apr - 04:07:53 10° SSW 04:17:07 44° SE 04:26:04 10° ENE visible
22 Apr - 06:11:29 10° WSW 06:21:27 87° NNW 06:31:03 10° ENE daylight
22 Apr - 08:17:07 10° W 08:26:51 69° N 08:36:11 10° E daylight
22 Apr - 10:22:28 10° WNW 10:32:03 84° SSW 10:41:17 10° ESE daylight
22 Apr - 12:27:51 10° WNW 12:35:52 34° SW 12:43:46 10° SSE daylight
23 Apr - 03:42:55 10° SSW 03:52:00 41° SE 04:00:50 10° ENE visible
23 Apr - 05:46:14 10° WSW 05:56:14 90° E 06:05:52 10° ENE daylight
23 Apr - 07:51:49 10° W 08:01:36 69° N 08:10:59 10° E daylight
23 Apr - 09:57:14 10° WNW 10:06:52 88° SSW 10:16:08 10° ESE daylight
23 Apr - 12:02:31 10° WNW 12:10:49 37° SW 12:18:55 10° SSE daylight
24 Apr - 03:17:58 10° SSW 03:26:54 38° SE 03:35:34 10° ENE visible
24 Apr - 05:21:00 10° WSW 05:31:02 87° SSE 05:40:41 10° ENE daylight
24 Apr - 07:26:32 10° W 07:36:21 69° N 07:45:46 10° E daylight
24 Apr - 09:32:00 10° WNW 09:41:41 89° NNE 09:51:00 10° ESE daylight
24 Apr - 11:37:14 10° WNW 11:45:45 40° SW 11:54:03 10° SSE daylight
25 Apr - 02:53:05 10° SSW 03:01:47 35° SE 03:10:17 10° ENE visible
25 Apr - 04:55:47 10° WSW 05:05:49 83° SSE 05:15:30 10° ENE daylight
25 Apr - 07:01:15 10° W 07:11:06 69° N 07:20:33 10° E daylight
25 Apr - 09:06:46 10° WNW 09:16:29 86° NNE 09:25:50 10° ESE daylight
25 Apr - 11:11:57 10° WNW 11:20:40 43° SW 11:29:09 10° SSE daylight
26 Apr - 02:28:13 10° S 02:36:41 32° SE 02:44:59 10° ENE visible
26 Apr - 04:30:35 10° WSW 04:40:37 80° SSE 04:50:19 10° ENE visible
26 Apr - 06:35:57 10° W 06:45:50 70° N 06:55:20 10° E daylight
26 Apr - 08:41:31 10° WNW 08:51:17 83° NNE 09:00:39 10° ESE daylight
26 Apr - 10:46:42 10° WNW 10:55:35 47° SW 11:04:13 10° SSE daylight
26 Apr - 12:55:55 10° WSW 12:58:20 11° WSW 13:00:44 10° SW daylight
27 Apr - 02:03:23 10° S 02:11:36 29° SE 02:19:39 10° ENE visible
27 Apr - 04:05:23 10° SW 04:15:26 76° SSE 04:25:08 10° ENE visible
27 Apr - 06:10:39 10° W 06:20:35 71° N 06:30:07 10° ENE daylight
27 Apr - 08:16:17 10° WNW 08:26:05 81° NNE 08:35:28 10° ESE daylight
27 Apr - 10:21:26 10° WNW 10:30:29 50° SW 10:39:15 10° SSE daylight
27 Apr - 12:29:33 10° W 12:33:21 13° WSW 12:37:07 10° SSW daylight
28 Apr - 01:38:35 10° S 01:46:31 27° SE 01:54:17 10° ENE visible
28 Apr - 03:40:13 10° SW 03:50:14 73° SSE 03:59:56 10° ENE visible
28 Apr - 05:45:21 10° W 05:55:19 72° N 06:04:55 10° ENE daylight
28 Apr - 07:51:01 10° WNW 08:00:51 79° NNE 08:10:16 10° ESE daylight
28 Apr - 09:56:11 10° WNW 10:05:23 54° SW 10:14:16 10° SE daylight
28 Apr - 12:03:37 10° W 12:08:21 15° WSW 12:13:01 10° SSW daylight
